Content
SEND FEEDBACK

Daily
Averages
Monthly
Summary
United States of America

WAHWEAP, ARIZONA


Home > North America > United States > Arizona
Elevation: 3703 feet     Latitude: 36 59N     Longitude: 111 29W

WEATHER
 
SELECT A DAY
Number of Records: 193,007;   Date Range: 1/1/95 - 4/17/14
 
SHARE

PRINT THIS DATA

[ ← Previous Day ]
WEATHER ALMANAC - JULY 1, 2013
[ Next Day → ]
[ °C ]   °F
We're sorry. There is no daily almanac available for Wahweap, Arizona on July 1, 2013.
WEATHER BY HOUR - JULY 1, 2013
[ °C ]   °F
Local TimeTemperatureDewpointHumidityBarometerVisibilityWind DirectionWind SpeedGust SpeedPrecipitationEventsConditions
1:53 AM84.0 °F37.0 °F19 %29.75 in10.0 miCalmClear
2:53 AM82.0 °F37.0 °F20 %29.78 in10.0 miCalmClear
3:53 AM79.0 °F37.9 °F23 %29.80 in10.0 miCalmClear
4:53 AM77.0 °F36.0 °F23 %29.83 in10.0 miESE (120°)3.5 mphClear
5:53 AM77.0 °F36.0 °F23 %29.85 in10.0 miSE (130°)6.9 mphClear
6:53 AM84.0 °F39.9 °F21 %29.87 in10.0 miEast (100°)6.9 mphClear
7:53 AM87.1 °F44.1 °F22 %29.88 in10.0 miSE (140°)4.6 mphClear
8:53 AM90.0 °F44.1 °F20 %29.88 in10.0 miEast (80°)5.8 mphClear
9:53 AM91.9 °F44.1 °F19 %29.88 in10.0 miNNE (30°)5.8 mphClear
10:53 AM95.0 °F43.0 °F17 %29.86 in10.0 miNE (40°)5.8 mphClear
11:53 AM97.0 °F43.0 °F16 %29.85 in10.0 miNorth (360°)8.1 mphClear
12:53 PM99.0 °F42.1 °F14 %29.83 in10.0 miNE (40°)6.9 mphClear
1:53 PM100.9 °F37.9 °F11 %29.79 in10.0 miVariable5.8 mphClear
2:53 PM104.0 °F37.9 °F10 %29.77 in10.0 miVariable5.8 mphClear
3:53 PM104.0 °F27.0 °F7 %29.75 in10.0 miVariable4.6 mphClear
4:53 PM104.0 °F28.9 °F7 %29.73 in10.0 miNNW (340°)6.9 mphClear
5:53 PM102.0 °F30.9 °F8 %29.73 in10.0 miNNW (330°)5.8 mphClear
6:53 PM99.0 °F33.1 °F10 %29.73 in10.0 miNW (310°)3.5 mphClear
7:53 PM97.0 °F39.0 °F13 %29.74 in10.0 miNNW (340°)4.6 mphClear
8:53 PM91.0 °F42.1 °F18 %29.75 in10.0 miCalmClear
9:53 PM90.0 °F41.0 °F18 %29.77 in10.0 miSW (220°)4.6 mphClear
10:53 PM86.0 °F42.1 °F21 %29.77 in10.0 miCalmClear
11:53 PM86.0 °F41.0 °F20 %29.77 in10.0 miCalmClear
Hourly data recorded from KPGA, located 4.41 miles away from Wahweap, Arizona







STORIES FROM OUR PARTNERS